Location: Unspecified
(0.0000°N, 0.0000°E)
Time: 02:29:29
(UTC+00:00)

Transit 2A - Pass Details

Date: 29 September 2023
Orbit: 600 x 953 km, 66.7° (Epoch: 06 December)

Event Time Altitude Azimuth Distance (km) Brightness Sun altitude
Rises 18:47:40 0° 313° (NW) 2,832 9.7 -14.3°
Reaches altitude 10° 18:50:24 10° 295° (WNW) 1,938 9.1 -15.0°
Maximum altitude 18:53:30 19° 249° (WSW) 1,457 8.4 -15.8°
Drops below altitude 10° 18:56:41 10° 203° (SSW) 2,001 8.5 -16.6°
Sets 18:59:35 0° 185° (S) 2,958 9.1 -17.3°
